Year,Month,Day,Hour,Minute,Value (Times are PST for temperature in C)
2010,01,19,12,35,12.60
2010,01,19,12,36,12.60
2010,01,19,12,37,12.60
2010,01,19,12,38,12.60
2010,01,19,12,39,12.60
2010,01,19,12,40,12.60
2010,01,19,12,41,12.60
2010,01,19,12,42,12.60
2010,01,19,12,43,12.70
2010,01,19,12,44,12.70
2010,01,19,12,45,12.60
2010,01,19,12,46,12.60
2010,01,19,12,47,12.60
2010,01,19,12,48,12.60
2010,01,19,12,49,12.60
2010,01,19,12,50,12.60
2010,01,19,12,51,12.60
2010,01,19,12,52,12.60
2010,01,19,12,53,12.60
2010,01,19,12,54,12.70
2010,01,19,12,55,12.70
2010,01,19,12,56,12.70
2010,01,19,12,57,12.70
2010,01,19,12,58,12.70
2010,01,19,12,59,12.80
2010,01,19,13,00,12.80
2010,01,19,13,01,12.80
2010,01,19,13,02,12.80
2010,01,19,13,03,12.80
2010,01,19,13,04,12.80
2010,01,19,13,05,12.80
2010,01,19,13,06,12.80
2010,01,19,13,07,12.80
2010,01,19,13,08,12.80
2010,01,19,13,09,12.80
2010,01,19,13,10,12.80
2010,01,19,13,11,12.80
2010,01,19,13,12,12.80
2010,01,19,13,13,12.80
2010,01,19,13,14,12.80
2010,01,19,13,15,12.80
2010,01,19,13,16,12.80
2010,01,19,13,17,12.80
2010,01,19,13,18,12.80
2010,01,19,13,19,12.80
2010,01,19,13,20,12.70
2010,01,19,13,21,12.70
2010,01,19,13,22,12.70
2010,01,19,13,23,12.70
2010,01,19,13,24,12.60
2010,01,19,13,25,12.60
2010,01,19,13,26,12.60
2010,01,19,13,27,12.60
2010,01,19,13,28,12.60
2010,01,19,13,29,12.50
2010,01,19,13,30,12.50
2010,01,19,13,31,12.50
2010,01,19,13,32,12.50
2010,01,19,13,33,12.60
2010,01,19,13,34,12.60
2010,01,19,13,35,12.60
2010,01,19,13,36,12.60
2010,01,19,13,37,12.60
2010,01,19,13,38,12.70
2010,01,19,13,39,12.70
2010,01,19,13,40,12.70
2010,01,19,13,41,12.70
2010,01,19,13,42,12.70
2010,01,19,13,43,12.70
2010,01,19,13,44,12.70
2010,01,19,13,45,12.70
2010,01,19,13,46,12.70
2010,01,19,13,47,12.70
2010,01,19,13,48,12.70
2010,01,19,13,49,12.70
2010,01,19,13,50,12.70
2010,01,19,13,51,12.80
2010,01,19,13,52,12.80
2010,01,19,13,53,12.80
2010,01,19,13,54,12.80
2010,01,19,13,55,12.70
2010,01,19,13,56,12.70
2010,01,19,13,57,12.70
2010,01,19,13,58,12.70
2010,01,19,13,59,12.70
2010,01,19,14,00,12.70
2010,01,19,14,01,12.70
2010,01,19,14,02,12.70
2010,01,19,14,03,12.70
2010,01,19,14,04,12.80
2010,01,19,14,05,12.70
2010,01,19,14,06,12.70
2010,01,19,14,07,12.70
2010,01,19,14,08,12.70
2010,01,19,14,09,12.70
2010,01,19,14,10,12.60
2010,01,19,14,11,12.60
2010,01,19,14,12,12.60
2010,01,19,14,13,12.60
2010,01,19,14,14,12.60
2010,01,19,14,15,12.70
2010,01,19,14,16,12.70
2010,01,19,14,17,12.70
2010,01,19,14,18,12.70
2010,01,19,14,19,12.70
2010,01,19,14,20,12.80
2010,01,19,14,21,12.80
2010,01,19,14,22,12.80
2010,01,19,14,23,12.80
2010,01,19,14,24,12.80
2010,01,19,14,25,12.80
2010,01,19,14,26,12.80
2010,01,19,14,27,12.80
2010,01,19,14,28,12.80
2010,01,19,14,29,12.80
2010,01,19,14,30,12.80
2010,01,19,14,31,12.80
2010,01,19,14,32,12.80
2010,01,19,14,33,12.80
2010,01,19,14,34,12.80
2010,01,19,14,35,12.80
2010,01,19,14,36,12.80
2010,01,19,14,37,12.80
2010,01,19,14,38,12.80
2010,01,19,14,39,12.80
2010,01,19,14,40,12.70
2010,01,19,14,41,12.70
2010,01,19,14,42,12.70
2010,01,19,14,43,12.60
2010,01,19,14,44,12.60
2010,01,19,14,45,12.60
2010,01,19,14,46,12.60
2010,01,19,14,47,12.60
2010,01,19,14,48,12.60
2010,01,19,14,49,12.60
2010,01,19,14,50,12.50
2010,01,19,14,51,12.50
2010,01,19,14,52,12.50
2010,01,19,14,53,12.50
2010,01,19,14,54,12.50
2010,01,19,14,55,12.40
2010,01,19,14,56,12.40
2010,01,19,14,57,12.40
2010,01,19,14,58,12.40
2010,01,19,14,59,12.40
2010,01,19,15,00,12.40
2010,01,19,15,01,12.40
2010,01,19,15,02,12.50
2010,01,19,15,03,12.50
2010,01,19,15,04,12.50
2010,01,19,15,05,12.50
2010,01,19,15,06,12.50
2010,01,19,15,07,12.50
2010,01,19,15,08,12.50
2010,01,19,15,09,12.50
2010,01,19,15,10,12.50
2010,01,19,15,11,12.50
2010,01,19,15,12,12.50
2010,01,19,15,13,12.50
2010,01,19,15,14,12.50
2010,01,19,15,15,12.50
2010,01,19,15,16,12.50
2010,01,19,15,17,12.50
2010,01,19,15,18,12.40
2010,01,19,15,19,12.40
2010,01,19,15,20,12.40
2010,01,19,15,21,12.40
2010,01,19,15,22,12.40
2010,01,19,15,23,12.40
2010,01,19,15,24,12.40
2010,01,19,15,25,12.40
2010,01,19,15,26,12.40
2010,01,19,15,27,12.40
2010,01,19,15,28,12.30
2010,01,19,15,29,12.30
2010,01,19,15,30,12.30
2010,01,19,15,31,12.30
2010,01,19,15,32,12.30
2010,01,19,15,33,12.30
2010,01,19,15,34,12.30
2010,01,19,15,35,12.30
2010,01,19,15,36,12.30
2010,01,19,15,37,12.30
2010,01,19,15,38,12.30
2010,01,19,15,39,12.30
2010,01,19,15,40,12.30
2010,01,19,15,41,12.30
2010,01,19,15,42,12.30
2010,01,19,15,43,12.30
2010,01,19,15,44,12.30
2010,01,19,15,45,12.30
2010,01,19,15,46,12.30
2010,01,19,15,47,12.30
2010,01,19,15,48,12.30
2010,01,19,15,49,12.30
2010,01,19,15,50,12.30
2010,01,19,15,51,12.30
2010,01,19,15,52,12.30
2010,01,19,15,53,12.30
2010,01,19,15,54,12.40
2010,01,19,15,55,12.40
2010,01,19,15,56,12.40
2010,01,19,15,57,12.40
2010,01,19,15,58,12.40
2010,01,19,15,59,12.40
2010,01,19,16,00,12.40
2010,01,19,16,01,12.40
2010,01,19,16,02,12.40
2010,01,19,16,03,12.40
2010,01,19,16,04,12.30
2010,01,19,16,05,12.30
2010,01,19,16,06,12.30
2010,01,19,16,07,12.30
2010,01,19,16,08,12.30
2010,01,19,16,09,12.30
2010,01,19,16,10,12.30
2010,01,19,16,11,12.30
2010,01,19,16,12,12.30
2010,01,19,16,13,12.30
2010,01,19,16,14,12.30
2010,01,19,16,15,12.30
2010,01,19,16,16,12.30
2010,01,19,16,17,12.30
2010,01,19,16,18,12.30
2010,01,19,16,19,12.30
2010,01,19,16,20,12.30
2010,01,19,16,21,12.30
2010,01,19,16,22,12.30
2010,01,19,16,23,12.30
2010,01,19,16,24,12.30
2010,01,19,16,25,12.30
2010,01,19,16,26,12.30
2010,01,19,16,27,12.30
2010,01,19,16,28,12.30
2010,01,19,16,29,12.30
2010,01,19,16,30,12.30
2010,01,19,16,31,12.30
2010,01,19,16,32,12.30
2010,01,19,16,33,12.30
2010,01,19,16,34,12.30
2010,01,19,16,35,12.30
2010,01,19,16,36,12.20
2010,01,19,16,37,12.20
2010,01,19,16,38,12.20
2010,01,19,16,39,12.10
2010,01,19,16,40,12.10
2010,01,19,16,41,12.10
2010,01,19,16,42,12.10
2010,01,19,16,43,12.10
2010,01,19,16,44,12.10
2010,01,19,16,45,12.10
2010,01,19,16,46,12.00
2010,01,19,16,47,12.00
2010,01,19,16,48,12.00
2010,01,19,16,49,12.00
2010,01,19,16,50,12.00
2010,01,19,16,51,12.00
2010,01,19,16,52,12.00
2010,01,19,16,53,12.00
2010,01,19,16,54,12.00
2010,01,19,16,55,11.90
2010,01,19,16,56,11.90
2010,01,19,16,57,11.90
2010,01,19,16,58,11.90
2010,01,19,16,59,11.90
2010,01,19,17,00,11.80
2010,01,19,17,01,11.80
2010,01,19,17,02,11.80
2010,01,19,17,03,11.80
2010,01,19,17,04,11.80
2010,01,19,17,05,11.80
2010,01,19,17,06,11.80
2010,01,19,17,07,11.80
2010,01,19,17,08,11.80
2010,01,19,17,09,11.80
2010,01,19,17,10,11.80
2010,01,19,17,11,11.80
2010,01,19,17,12,11.80
2010,01,19,17,13,11.80
2010,01,19,17,14,11.90
2010,01,19,17,15,11.90
2010,01,19,17,16,11.90
2010,01,19,17,17,11.90
2010,01,19,17,18,12.00
2010,01,19,17,19,12.00
2010,01,19,17,20,12.00
2010,01,19,17,21,12.10
2010,01,19,17,22,12.10
2010,01,19,17,23,12.10
2010,01,19,17,24,12.10
2010,01,19,17,25,12.10
2010,01,19,17,26,12.10
2010,01,19,17,27,12.10
2010,01,19,17,28,12.10
2010,01,19,17,29,12.20
2010,01,19,17,30,12.20
2010,01,19,17,31,12.20
2010,01,19,17,32,12.20
2010,01,19,17,33,12.20
2010,01,19,17,34,12.20
2010,01,19,17,35,12.20
2010,01,19,17,36,12.20
2010,01,19,17,37,12.10
2010,01,19,17,38,12.10
2010,01,19,17,39,12.10
2010,01,19,17,40,12.10
2010,01,19,17,41,12.10
2010,01,19,17,42,12.10
2010,01,19,17,43,12.00
2010,01,19,17,44,12.00
2010,01,19,17,45,12.00
2010,01,19,17,46,12.10
2010,01,19,17,47,12.10
2010,01,19,17,48,12.10
2010,01,19,17,49,12.10
2010,01,19,17,50,12.10
2010,01,19,17,51,12.10
2010,01,19,17,52,12.10
2010,01,19,17,53,12.10
2010,01,19,17,54,12.20
2010,01,19,17,55,12.20
2010,01,19,17,56,12.20
2010,01,19,17,57,12.30
2010,01,19,17,58,12.30
2010,01,19,17,59,12.30
2010,01,19,18,00,12.30
2010,01,19,18,01,12.30
2010,01,19,18,02,12.30
2010,01,19,18,03,12.30
2010,01,19,18,04,12.30
2010,01,19,18,05,12.20
2010,01,19,18,06,12.20
2010,01,19,18,07,12.20
2010,01,19,18,08,12.10
2010,01,19,18,09,12.10
2010,01,19,18,10,12.00
2010,01,19,18,11,12.00
2010,01,19,18,12,11.90
2010,01,19,18,13,11.90
2010,01,19,18,14,11.90
2010,01,19,18,15,11.90
2010,01,19,18,16,11.80
2010,01,19,18,17,11.80
2010,01,19,18,18,11.80
2010,01,19,18,19,11.80
2010,01,19,18,20,11.80
2010,01,19,18,21,11.80
2010,01,19,18,22,11.70
2010,01,19,18,23,11.70
2010,01,19,18,24,11.70
2010,01,19,18,25,11.70
2010,01,19,18,26,11.70
2010,01,19,18,27,11.70
2010,01,19,18,28,11.70
2010,01,19,18,29,11.70
2010,01,19,18,30,11.60
2010,01,19,18,31,11.60
2010,01,19,18,32,11.60
2010,01,19,18,33,11.60
2010,01,19,18,34,11.60
2010,01,19,18,35,11.60
2010,01,19,18,36,11.60
2010,01,19,18,37,11.60
2010,01,19,18,38,11.60
2010,01,19,18,39,11.60
2010,01,19,18,40,11.60
2010,01,19,18,41,11.60
2010,01,19,18,42,11.40
2010,01,19,18,43,11.40
2010,01,19,18,44,11.40
2010,01,19,18,45,11.40
2010,01,19,18,46,11.40
2010,01,19,18,47,11.40
2010,01,19,18,48,11.40
2010,01,19,18,49,11.40
2010,01,19,18,50,11.40
2010,01,19,18,51,11.40
2010,01,19,18,52,11.40
2010,01,19,18,53,11.30
2010,01,19,18,54,11.30
2010,01,19,18,55,11.30
2010,01,19,18,56,11.30
2010,01,19,18,57,11.20
2010,01,19,18,58,11.20
2010,01,19,18,59,11.20
2010,01,19,19,00,11.20
2010,01,19,19,01,11.20
2010,01,19,19,02,11.20
2010,01,19,19,03,11.20
2010,01,19,19,04,11.20
2010,01,19,19,05,11.20
2010,01,19,19,06,11.20
2010,01,19,19,07,11.20
2010,01,19,19,08,11.20
2010,01,19,19,09,11.20
2010,01,19,19,10,11.20
2010,01,19,19,11,11.20
2010,01,19,19,12,11.20
2010,01,19,19,13,11.20
2010,01,19,19,14,11.20
2010,01,19,19,15,11.20
